Heraklion, Greece

2:06 PM EEST on March 26, 2017 (GMT +0300)
Nikos Kazantzakis

Weather History for LGIR - April, 2013

Change the Weather History Date:

Thursday, April 18, 2013

  Actual Average Record
Temperature  
Mean Temperature 59 °F -  
Max Temperature 61 °F 72 °F 79 °F (2015)
Min Temperature 57 °F 57 °F 50 °F (2007)
Degree Days  
Heating Degree Days 6    
Growing Degree Days 9 (Base 50)    
Moisture  
Dew Point 45 °F    
Average Humidity 58    
Maximum Humidity 67    
Minimum Humidity 41    
Precipitation  
Precipitation 0.04 in 0.03 in - ()
Sea Level Pressure  
Sea Level Pressure 29.97 in    
Wind  
Wind Speed 18 mph ()    
Max Wind Speed 24 mph    
Max Gust Speed -    
Visibility 6.2 miles    
Events      
Averages and records for this station are not official NWS values.
T = Trace of Precipitation, MM = Missing Value Source: Averaged Metar Reports

Daily Weather History Graph

Daily Weather History Graph

Search for Another Location

Airport or City:

Trip Planner

Search our weather history database for the weather conditions in past years. The results will help you decide how hot, cold, wet, or windy it might be!

Date:

Astronomy

Apr. 18, 2013 Rise Set
Actual Time 6:43 AM EEST 7:54 PM EEST
Civil Twilight 6:16 AM EEST 8:20 PM EEST
Nautical Twilight 5:45 AM EEST 8:52 PM EEST
Astronomical Twilight 5:12 AM EEST 9:25 PM EEST
Moon 12:39 PM EEST (4/18) 1:54 AM EEST (4/18)
Length of Visible Light 14h 04m
Length of Day
13h 11m
Waxing Crescent, 49% of the Moon is Illuminated
Apr 18
Waxing Crescent
Apr 18
First Quarter
Apr 25
Full
May 2
Last Quarter
May 10
New

Hourly Weather History & Observations

Time (EEST) Temp. Dew Point Humidity Pressure Visibility Wind Dir Wind Speed Gust Speed Precip Events Conditions
12:20 AM 59.0 °F 46.4 °F 63% 30.01 in 6.2 mi NNW 19.6 mph - N/A   Scattered Clouds
12:50 AM 59.0 °F 46.4 °F 63% 30.01 in 6.2 mi NNW 18.4 mph - N/A   Partly Cloudy
1:20 AM 59.0 °F 46.4 °F 63% 29.98 in 6.2 mi NNW 19.6 mph - N/A   Partly Cloudy
1:50 AM 59.0 °F 48.2 °F 67% 29.98 in 6.2 mi NNW 19.6 mph - N/A   Partly Cloudy
2:20 AM 59.0 °F 48.2 °F 67% 29.98 in 6.2 mi NW 18.4 mph - N/A   Partly Cloudy
2:50 AM 59.0 °F 48.2 °F 67% 29.98 in 6.2 mi NNW 19.6 mph - N/A   Scattered Clouds
3:00 AM 59 °F 49 °F 60% 29.99 in 6 mi NNW 19.6 mph - -   Partly Cloudy
3:20 AM 59.0 °F 48.2 °F 67% 29.98 in 6.2 mi NW 18.4 mph - N/A   Scattered Clouds
3:50 AM 59.0 °F 48.2 °F 67% 29.95 in 6.2 mi NNW 19.6 mph - N/A   Scattered Clouds
4:20 AM 59.0 °F 46.4 °F 63% 29.95 in 6.2 mi NNW 12.7 mph - N/A   Partly Cloudy
4:50 AM 59.0 °F 44.6 °F 59% 29.95 in 6.2 mi NNW 17.3 mph - N/A   Partly Cloudy
5:20 AM 59.0 °F 44.6 °F 59% 29.95 in 6.2 mi NNW 17.3 mph - N/A   Partly Cloudy
5:50 AM 59.0 °F 44.6 °F 59% 29.95 in 6.2 mi NNW 13.8 mph - N/A   Partly Cloudy
6:20 AM 59.0 °F 42.8 °F 55% 29.95 in 6.2 mi NNW 12.7 mph - N/A   Partly Cloudy
6:50 AM 57.2 °F 44.6 °F 63% 29.95 in 6.2 mi NNW 12.7 mph - N/A   Partly Cloudy
7:20 AM 57.2 °F 44.6 °F 63% 29.95 in 6.2 mi NNW 13.8 mph - N/A   Partly Cloudy
7:50 AM 59.0 °F 42.8 °F 55% 29.95 in 6.2 mi NNW 17.3 mph - N/A   Partly Cloudy
8:20 AM 59.0 °F 41.0 °F 51% 29.95 in 6.2 mi NNW 21.9 mph - N/A   Partly Cloudy
8:50 AM 60.8 °F 42.8 °F 52% 29.95 in 6.2 mi NNW 21.9 mph - N/A   Partly Cloudy
9:00 AM 60 °F 43 °F 43% 29.96 in 9 mi NNW 21.9 mph - -   Scattered Clouds
9:20 AM 60.8 °F 46.4 °F 59% 29.95 in 6.2 mi NNW 19.6 mph - N/A   Scattered Clouds
9:50 AM 60.8 °F 46.4 °F 59% 29.95 in 6.2 mi NNW 20.7 mph - N/A   Partly Cloudy
10:20 AM 60.8 °F 42.8 °F 52% 29.95 in 6.2 mi NNW 19.6 mph - N/A   Partly Cloudy
10:50 AM 60.8 °F 44.6 °F 55% 29.98 in 6.2 mi NNW 19.6 mph - N/A   Partly Cloudy
11:20 AM 60.8 °F 44.6 °F 55% 29.98 in 6.2 mi NNW 19.6 mph - N/A   Partly Cloudy
11:50 AM 60.8 °F 46.4 °F 59% 29.98 in 6.2 mi NW 20.7 mph - N/A   Scattered Clouds
12:20 PM 60.8 °F 46.4 °F 59% 29.98 in 6.2 mi NW 20.7 mph - N/A   Scattered Clouds
12:50 PM 62.6 °F 46.4 °F 55% 29.98 in 6.2 mi NNW 21.9 mph - N/A   Scattered Clouds
1:20 PM 62.6 °F 46.4 °F 55% 29.98 in 6.2 mi NNW 21.9 mph - N/A   Scattered Clouds
1:50 PM 60.8 °F 46.4 °F 59% 29.98 in 6.2 mi NNW 20.7 mph - N/A   Scattered Clouds
2:20 PM 62.6 °F 42.8 °F 48% 29.98 in 6.2 mi NNW 24.2 mph - N/A   Scattered Clouds
2:50 PM 60.8 °F 44.6 °F 55% 29.98 in 6.2 mi NNW 24.2 mph - N/A   Scattered Clouds
3:00 PM 62 °F 44 °F 41% 29.99 in 6 mi NNW 24.2 mph - -   Partly Cloudy
3:20 PM 59.0 °F 46.4 °F 63% 29.98 in 6.2 mi NNW 24.2 mph - N/A   Scattered Clouds
3:50 PM 59.0 °F 46.4 °F 63% 29.98 in 6.2 mi NNW 24.2 mph - N/A   Mostly Cloudy
4:20 PM 60.8 °F 46.4 °F 59% 29.98 in 6.2 mi NNW 24.2 mph - N/A   Mostly Cloudy
4:50 PM 59.0 °F 44.6 °F 59% 29.98 in 6.2 mi NNW 24.2 mph - N/A   Mostly Cloudy
5:20 PM 60.8 °F 44.6 °F 55% 29.98 in 6.2 mi NNW 17.3 mph - N/A   Mostly Cloudy
5:50 PM 59.0 °F 42.8 °F 55% 29.98 in 6.2 mi NNW 15.0 mph - N/A   Mostly Cloudy
6:20 PM 57.2 °F 44.6 °F 63% 29.98 in 6.2 mi NNW 12.7 mph - N/A   Mostly Cloudy
6:50 PM 57.2 °F 44.6 °F 63% 29.98 in 6.2 mi NNW 13.8 mph - N/A   Mostly Cloudy
7:20 PM 57.2 °F 41.0 °F 55% 29.98 in 6.2 mi NNW 19.6 mph - N/A   Mostly Cloudy
7:50 PM 57.2 °F 42.8 °F 59% 29.98 in 6.2 mi NNW 19.6 mph - N/A   Mostly Cloudy
8:20 PM 57.2 °F 42.8 °F 59% 29.98 in 6.2 mi NNW 19.6 mph - N/A   Mostly Cloudy
8:50 PM 57.2 °F 42.8 °F 59% 29.98 in 6.2 mi NNW 19.6 mph - N/A   Scattered Clouds
9:00 PM 57 °F 43 °F 49% 29.98 in 6 mi NNW 19.6 mph - -   Partly Cloudy
9:20 PM 57.2 °F 42.8 °F 59% 29.98 in 6.2 mi NNW 19.6 mph - N/A   Partly Cloudy
9:50 PM 57.2 °F 42.8 °F 59% 29.98 in 6.2 mi NNW 17.3 mph - N/A   Partly Cloudy
10:20 PM 57.2 °F 42.8 °F 59% 29.98 in 6.2 mi NNW 17.3 mph - N/A   Partly Cloudy
10:50 PM 57.2 °F 42.8 °F 59% 29.95 in 6.2 mi NNW 18.4 mph - N/A   Partly Cloudy
11:20 PM 57.2 °F 42.8 °F 59% 29.95 in 6.2 mi NW 18.4 mph - N/A   Partly Cloudy
11:50 PM 57.2 °F 41.0 °F 55% 29.95 in 6.2 mi NNW 19.6 mph - N/A   Partly Cloudy